Flag for Hungary Weather past 2 weeks in Budapest, Hungary

Now
64 °F

Sprinkles. Partly sunny.


Feels Like: 64 °F
Forecast: 61 / 75 °F
Wind: 10 mph from North

Location: Ferenc Liszt International Airport

Current Time: Sep 1, 2014 at 5:40:14 PM

Latest Report: Sep 1, 2014 at 5:00 PM


Visibility: N/A

Pressure: 29.83 "Hg

Humidity: 100%

Dew point: 64 °F

Location of BudapestLocation

Historic Weather in Budapest — Graph

°F

Budapest temperature yesterday

Maximum temperature yesterday: 73 °F (at 10:30 AM)
Minimum temperature yesterday: 59 °F (at 5:00 AM)
Average temperature yesterday: 67 °F

Past Weeks' High & Low Weather Summary

 TemperatureHumidityPressure
High79 °F (Aug 19, 3:00 PM)100% (Aug 18, 3:00 AM)30.15 "Hg (Aug 18, 3:00 AM)
Low43 °F (Aug 28, 3:30 AM)35% (Aug 25, 1:00 PM)29.74 "Hg (Aug 27, 4:00 AM)
Average63 °F74%29.98 "Hg
* Reported Aug 17 4:00 PM — Sep 1 4:30 PM, Budapest, Weather by CustomWeather, © 2014

Note: Actual official high and low records may vary slightly from our data, if they occured in-between our weather recording intervals... More about our weather records

Advertising

Budapest weather history for previous 24 hours

 ConditionsComfort  
Time TempWeatherWind HumidityBarometerVisibility
4:30 PM
Sep 1
63 °FRain showers. Broken clouds.9 mph100%29.83 "Hg4 mi
4:00 PM64 °FRain showers. Broken clouds.8 mph94%29.83 "Hg5 mi
3:30 PM64 °FRain showers. Broken clouds.9 mph100%29.83 "Hg5 mi
3:00 PM64 °FRain showers. Broken clouds.10 mph94%29.86 "Hg4 mi
2:30 PM64 °FRain showers. Broken clouds.2 mph94%29.86 "Hg4 mi
2:00 PM66 °FRain showers. Broken clouds.7 mph94%29.83 "Hg5 mi
1:30 PM66 °FRain showers. Broken clouds.8 mph94%29.83 "Hg5 mi
1:00 PM68 °FSprinkles. Broken clouds.9 mph83%29.83 "HgN/A
12:30 PM70 °FBroken clouds.9 mph78%29.80 "HgN/A
12:00 PM68 °FPartly sunny.12 mph83%29.80 "HgN/A
11:30 AM66 °FPartly sunny.10 mph88%29.80 "HgN/A
11:00 AM64 °FBroken clouds.5 mph100%29.80 "HgN/A
10:30 AM64 °FLight rain. Broken clouds.3 mph94%29.83 "HgN/A
10:00 AM63 °FLight rain. Partly sunny.5 mph100%29.83 "Hg5 mi
9:30 AM63 °FSprinkles. Broken clouds.7 mph100%29.83 "HgN/A
9:00 AM63 °FSprinkles. Broken clouds.6 mph100%29.80 "HgN/A
8:30 AM63 °FBroken clouds.13 mph94%29.80 "HgN/A
8:00 AM63 °FSprinkles. Broken clouds.12 mph94%29.77 "Hg4 mi
7:30 AM61 °FRain showers. Fog.12 mph100%29.77 "Hg2 mi
7:00 AM61 °FRain showers. Broken clouds.10 mph100%29.77 "Hg4 mi
6:30 AM63 °FThunderstorms. Partly cloudy.6 mph94%29.80 "Hg4 mi
6:00 AM63 °FThunderstorms. Partly cloudy.6 mph94%29.80 "Hg4 mi
5:30 AM63 °FThunderstorms. Partly cloudy.9 mph94%29.77 "Hg4 mi
5:00 AM61 °FThunderstorms. Partly cloudy.8 mph100%29.77 "HgN/A
4:30 AM63 °FThunderstorms. Passing clouds.7 mph94%29.80 "HgN/A
4:00 AM63 °FPassing clouds.9 mph94%29.77 "HgN/A
3:30 AM63 °FClear.10 mph94%29.80 "Hg10 mi
3:00 AM63 °FClear.10 mph94%29.80 "Hg10 mi
2:30 AM63 °FSprinkles. Passing clouds.10 mph94%29.80 "HgN/A
2:00 AM63 °FSprinkles. Partly cloudy.6 mph94%29.83 "HgN/A
1:30 AM63 °FThunderstorms. Partly cloudy.8 mph94%29.83 "HgN/A
1:00 AM63 °FThundershowers. Passing clouds.12 mph94%29.83 "HgN/A
12:30 AM61 °FThunderstorms. Partly cloudy.13 mph100%29.86 "HgN/A
12:00 AM63 °FThunderstorms. Partly cloudy.13 mph88%29.86 "Hg4 mi
11:30 PM
Aug 31
64 °FThunderstorms. Partly cloudy.13 mph83%29.86 "HgN/A
11:00 PM64 °FThunderstorms. Partly cloudy.10 mph83%29.86 "HgN/A
10:30 PM64 °FPartly cloudy.10 mph83%29.86 "HgN/A
10:00 PM64 °FThunderstorms. Partly cloudy.10 mph88%29.86 "HgN/A
9:30 PM64 °FPartly cloudy.6 mph88%29.86 "HgN/A
9:00 PM66 °FPartly cloudy.7 mph83%29.86 "HgN/A
8:30 PM66 °FPartly cloudy.9 mph83%29.86 "HgN/A
8:00 PM66 °FBroken clouds.9 mph83%29.86 "HgN/A
7:30 PM68 °FBroken clouds.7 mph78%29.86 "HgN/A
7:00 PM68 °FBroken clouds.6 mph83%29.86 "HgN/A
6:30 PM70 °FSunny.9 mph73%29.86 "Hg10 mi
6:00 PM70 °FSunny.8 mph73%29.89 "Hg10 mi
5:30 PM72 °FSunny.9 mph69%29.89 "Hg10 mi
5:00 PM73 °FPassing clouds.9 mph61%29.89 "HgN/A
Weather by CustomWeather, © 2014

See weather overviewHow to use our weather pages